Regional Weather Roundup
Issued by NWS

Home | Current Version | Previous Version | Text Only | Print | Product List | Glossary Off
Versions: 1 2 3 4 5 6 7 8 9 10 11 12 13 14 15 16 17 18 19 20 21 22 23 24 25 26 27 28 29 30 31 32 33 34 35 36 37 38 39 40 41 42 43 44 45 46 47 48 49 50

000
ASUS45 KPSR 240010
RWRAZ

ARIZONA REGIONAL HOURLY WEATHER ROUNDUP
NATIONAL WEATHER SERVICE PHOENIX AZ
500 PM MST WED JUL 23 2014

NOTE: FAIR INDICATES FEW OR NO CLOUDS BELOW 12,000 FEET WITH NO
SIGNIFICANT WEATHER AND/OR OBSTRUCTIONS TO VISIBILITY.

AZZ001>003-036-240100-
NORTHWEST ARIZONA

CITY           SKY/WX    TMP DP  RH WIND       PRES   REMARKS
BULLHEAD CITY  SUNNY    113  34   6 SW5       29.74F HX 105
KINGMAN        SUNNY    101  36  10 SW14      30.01F
6HR MIN TEMP:  98; 6HR MAX TEMP: 104;

$$

AZZ004>008-015-016-018-240100-
NORTH CENTRAL ARIZONA

CITY           SKY/WX    TMP DP  RH WIND       PRES   REMARKS
GRAND CANYON   CLOUDY    87  37  17 W3        30.29F
6HR MIN TEMP:  85; 6HR MAX TEMP:  91;

WILLIAMS       CLOUDY    82  41  23 CALM      30.36F
PRESCOTT       PTSUNNY   93  45  19 SE12      30.14F
6HR MIN TEMP:  91; 6HR MAX TEMP:  97;

FLAGSTAFF      PTSUNNY   82  45  27 SW13      30.33F
6HR MIN TEMP:  79; 6HR MAX TEMP:  85;

PAYSON         PTSUNNY   88  50  27 NW5       30.19F
PAGE           MOSUNNY  106  36   9 MISG      30.03F
6HR MIN TEMP:  95; 6HR MAX TEMP: 106;

$$

AZZ009>014-017-240100-
NORTHEAST ARIZONA

CITY           SKY/WX    TMP DP  RH WIND       PRES   REMARKS
WINSLOW        CLOUDY    85  51  31 SW17      30.15F
6HR MIN TEMP:  85; 6HR MAX TEMP:  99; 6HR PCP:  0.02;

SAINT JOHNS    CLOUDY    75  58  55 SE10      30.29R
6HR MIN TEMP:  70; 6HR MAX TEMP:  93; 6HR PCP:  0.20;

WINDOW ROCK    CLOUDY    83  48  29 S21G31    30.34S
6HR MIN TEMP:  77; 6HR MAX TEMP:  91; 6HR PCP: TRACE;

SHOW LOW       CLOUDY    75  48  38 S24G33    30.35R
$$

AZZ023-240100-
GREATER PHOENIX AREA

CITY           SKY/WX    TMP DP  RH WIND       PRES   REMARKS
PHOENIX        PTSUNNY  113  50  12 CALM      29.76F HX 110
6HR MIN TEMP: 107; 6HR MAX TEMP: 114;

BUCKEYE          N/A    111  48  12 SE8       29.78F HX 107
GLENDALE       PTSUNNY  111  46  11 SE5       29.78F HX 107
LUKE AFB       NOT AVBL
6HR MIN TEMP: 105; 6HR MAX TEMP: 112;

DEER VALLEY    MOSUNNY  109  50  14 S13       29.80F HX 106
6HR MIN TEMP: 102; 6HR MAX TEMP: 111;

SCOTTSDALE     MOSUNNY  109  53  15 SW10      29.81F HX 107
6HR MIN TEMP: 103; 6HR MAX TEMP: 110;

MESA-FALCON    PTSUNNY  111  54  15 VRB7      29.79F HX 109
MESA-GATEWAY   PTSUNNY  109  48  13 S6        29.81F HX 106
CHANDLER       PTSUNNY  111  54  15 SW8         N/A  HX 109
$$

AZZ027-028-240100-
SOUTHWEST MARICOPA COUNTY AND PINAL COUNTY

CITY           SKY/WX    TMP DP  RH WIND       PRES   REMARKS
CASA GRANDE    PTSUNNY  108  54  16 CALM      29.82F HX 106
6HR MIN TEMP: 100; 6HR MAX TEMP: 109;

GILA BEND      PTCLDY   115  46  10 NW3       29.77F HX 110
$$

AZZ503-504-507>509-240100-
SOUTHEAST ARIZONA

CITY           SKY/WX    TMP DP  RH WIND       PRES   REMARKS
TUCSON         MOSUNNY  104  50  16 NE9       29.94S HX 101
6HR MIN TEMP:  99; 6HR MAX TEMP: 106;

DAVIS-MONTHAN  CLOUDY   104  53  18 SE8       29.92F HX 101
6HR MIN TEMP:  99; 6HR MAX TEMP: 105;

RYAN FIELD       N/A    106  52  16 SE6       29.91F HX 103
NOGALES        PTSUNNY   97  53  22 E8        30.04F
6HR MIN TEMP:  92; 6HR MAX TEMP: 100;

SIERRA VISTA   PTSUNNY   91  48  22 SE8       30.15F
                                      6HR PCP: TRACE;

DOUGLAS        MOSUNNY   94  49  21 E14       30.10S
6HR MIN TEMP:  88; 6HR MAX TEMP:  95;

SAFFORD        CLOUDY    89  58  34 E14       30.06F
6HR MIN TEMP:  86; 6HR MAX TEMP: 101; 6HR PCP: TRACE;

$$

AZZ020-021-025-026-031-240100-
SOUTHWEST ARIZONA

CITY           SKY/WX    TMP DP  RH WIND       PRES   REMARKS
YUMA           NOT AVBL
$$

CAZ031-033-041-043-047-048-061-240100-
SOUTHERN CALIFORNIA

CITY           SKY/WX    TMP DP  RH WIND       PRES   REMARKS
DOWNTOWN L.A.  SUNNY     82  57  42 W6        29.89F
6HR MIN TEMP:  81; 6HR MAX TEMP:  88;

L.A. AIRPORT   MOSUNNY   76  60  57 W21       29.90F
6HR MIN TEMP:  75; 6HR MAX TEMP:  80;

SAN DIEGO      MOSUNNY   79  62  56 W13       29.92F
6HR MIN TEMP:  77; 6HR MAX TEMP:  81;

BURBANK        SUNNY     91  44  19 S9        29.90F
6HR MIN TEMP:  86; 6HR MAX TEMP:  94;

ONTARIO        MOSUNNY   95  49  20 SW10      29.90F
6HR MIN TEMP:  87; 6HR MAX TEMP:  99;

RIVERSIDE      SUNNY     95  50  21 W12       29.90S
6HR MIN TEMP:  86; 6HR MAX TEMP:  99;

PALM SPRINGS   SUNNY    115  30   5 NW16G26   29.75F HX 106
6HR MIN TEMP: 106; 6HR MAX TEMP: 116;

EL CENTRO NAS  MOSUNNY  116  31   5 CALM      29.69F HX 107
6HR MIN TEMP: 107; 6HR MAX TEMP: 117;

IMPERIAL       PTSUNNY  115  36   7 SE7       29.69F HX 107
6HR MIN TEMP: 106; 6HR MAX TEMP: 116;

BLYTHE         PTSUNNY  115  33   6 S8        29.72F HX 107
6HR MIN TEMP: 105; 6HR MAX TEMP: 116;

NEEDLES        SUNNY    115  29   5 SW10      29.76F HX 106
6HR MIN TEMP: 106; 6HR MAX TEMP: 117;

$$

NVZ020-UTZ003-240100-
SOUTHERN NEVADA-UTAH

CITY           SKY/WX    TMP DP  RH WIND       PRES   REMARKS
LAS VEGAS      MOSUNNY  109  22   4 SW15G24   29.81F HX 100
6HR MIN TEMP: 102; 6HR MAX TEMP: 112;

SALT LAKE CITY PTSUNNY  102  31   8 SW14G22   29.95F
6HR MIN TEMP:  97; 6HR MAX TEMP: 103;

$$

NMZ009-TXZ055-240100-
NEW MEXICO-WEST TEXAS

CITY           SKY/WX    TMP DP  RH WIND       PRES   REMARKS
ALBUQUERQUE    PTSUNNY   88  53  30 NW6       30.27F
6HR MIN TEMP:  82; 6HR MAX TEMP:  89; 6HR PCP: TRACE;

EL PASO        MOSUNNY   94  43  17 SE15G23   30.12F
6HR MIN TEMP:  89; 6HR MAX TEMP:  96;

$$


........................KEY........................
SKY/WX - SKY CONDITION/WEATHER
TMP    - TEMPERATURE IN FAHRENHEIT
DP     - DEW POINT IN FAHRENHEIT
RH     - RELATIVE HUMIDITY IN PERCENT
WIND   - DIRECTION AND SPEED IN MILES PER HOUR (MPH)
VRB    - VARIABLE WIND DIRECTION
PRES   - MEAN SEA LEVEL PRESSURE IN INCHES OF MERCURY
         F - FALLING PRESSURE   R - RISING PRESSURE
         S - STEADY PRESSURE
VSB    - VISIBILITY IN MILES
HX     - HEAT INDEX IN FAHRENHEIT
WCI    - WIND CHILL INDEX IN FAHRENHEIT
TC     - TEMPERATURE IN CELSIUS WHICH IS ALSO KNOWN AS
         TEMPERATURE IN CENTIGRADE
AFB    - AIR FORCE BASE
         LUKE AFB IS LUKE AIR FORCE BASE
         DAVIS-MONTHAN IS DAVIS-MONTHAN AIR FORCE BASE
NAS    - NAVAL AIR STATION
         EL CENTRO NAS IS EL CENTRO NAVAL AIR STATION
N/A    - NOT AVAILABLE


USA.gov is the U.S. government's official web portal to all federal, state and local government web resources and services.